Hourly Data Report for October 03, 2016

All times are specified in Local Standard Time (LST). Add 1 hour to adjust for Daylight Saving Time where and when it is observed.

CHARLOTTETOWN A
PRINCE EDWARD ISLAND

46°17'21.000" N
63°07'09.000" W
48.50 m
8300301
71706
YYG

Download Data

Hourly Data (October 2016)
Hourly Data Report for October 3, 2016
Temp Definition
°C
Dew Point Temp Definition
°C
Rel Hum Definition
%
Wind Dir Definition
10's deg

Wind Spd Definition
km/h
Visibility Definition
km
Stn Press Definition
kPa
Hmdx Definition


Wind Chill Definition


Weather Definition


TIME
00:00 Legend Double Dagger 11.8 10.9 94 25 12 3.2 100.69     Drizzle,Fog
01:00 Legend Double Dagger 11.8 11.2 96 25 9 3.2 100.63     Drizzle,Fog
02:00 Legend Double Dagger 12.1 11.6 97 22 9 3.2 100.52     Drizzle,Fog
03:00 Legend Double Dagger 12.2 11.7 97 24 9 12.9 100.44     LegendNANA
04:00 Legend Double Dagger 12.3 11.8 97 24 11 12.9 100.37     LegendNANA
05:00 Legend Double Dagger 12.3 11.7 96 26 14 24.1 100.37     Cloudy
06:00 Legend Double Dagger 12.3 11.5 95 28 12 24.1 100.45     LegendNANA
07:00 Legend Double Dagger 12.4 11.0 91 32 17 24.1 100.51     LegendNANA
08:00 Legend Double Dagger 12.2 9.8 85 1 22 19.3 100.59     Rain Showers
09:00 Legend Double Dagger 10.4 7.7 83 1 32 24.1 100.75     Rain Showers
10:00 Legend Double Dagger 9.9 5.7 75 2 32 24.1 100.87     LegendNANA
11:00 Legend Double Dagger 11.1 5.0 66 2 35 24.1 100.99     Mostly Cloudy
12:00 Legend Double Dagger 10.5 3.6 62 2 43 24.1 101.08     LegendNANA
13:00 Legend Double Dagger 10.2 2.6 59 1 31 24.1 101.13     LegendNANA
14:00 Legend Double Dagger 10.2 2.8 60 2 32 24.1 101.21     Mostly Cloudy
15:00 Legend Double Dagger 10.1 1.3 54 35 21 24.1 101.31     LegendNANA
16:00 Legend Double Dagger 9.3 1.3 57 35 24 24.1 101.38     LegendNANA
17:00 Legend Double Dagger 9.0 1.7 60 35 18 24.1 101.47     Mostly Cloudy
18:00 Legend Double Dagger 7.2 1.7 68 36 11 24.1 101.55     LegendNANA
19:00 Legend Double Dagger 6.4 1.5 71 36 10 24.1 101.60     LegendNANA
20:00 Legend Double Dagger 6.2 1.4 71 1 9 24.1 101.69     Mainly Clear
21:00 Legend Double Dagger 4.7 1.2 78 1 13 24.1 101.72     LegendNANA
22:00 Legend Double Dagger 4.4 0.6 76 1 8 24.1 101.80     LegendNANA
23:00 Legend Double Dagger 4.4 0.7 77 35 7 24.1 101.84     Clear

Notes on Data Quality.

Legend

  • E = Estimated
  • M = Missing
  • NA = Not Available
  • ‡ = Partner data that is not subject to review by the National Climate Archives
Date modified: